EW9965 Weather Reports


time (UTC)temp
F
wind
direction
speed
knots
gust
knots
rain 1hr
in
rain 24hr
in
rain mn
in
humidity
%
barometer
mb
20260506044508 56 202 0.0 0.0 0.00 0.23 0.23 73 1017.5
20260506043007 56 202 0.0 0.0 0.00 0.23 0.23 71 1017.4
20260506041503 57 202 0.0 0.0 0.00 0.23 0.23 70 1017.2
20260506040001 58 202 0.0 0.0 0.00 0.23 0.23 70 1017.1
20260506034606 58 202 0.0 0.0 0.00 0.23 0.23 70 1016.9
20260506033059 58 220 0.0 3.5 0.00 0.23 0.23 69 1016.7
20260506031557 59 181 0.9 5.2 0.00 0.23 0.23 68 1016.5
20260506030057 59 259 0.0 5.2 0.00 0.23 0.23 67 1016.2
20260506024559 60 235 0.0 4.3 0.00 0.23 0.23 65 1015.9
20260506023053 60 224 1.7 5.2 0.00 0.23 0.23 64 1015.7
20260506021602 61 239 2.6 7.0 0.00 0.23 0.23 62 1015.4
20260506020052 62 195 0.9 8.7 0.00 0.23 0.23 59 1015.2
20260506014551 63 180 2.6 8.7 0.00 0.23 0.23 59 1015.1
20260506013057 63 255 3.5 8.7 0.00 0.23 0.23 56 1015.0
20260506011603 64 195 4.3 9.6 0.00 0.23 0.23 56 1014.9
20260506010050 65 233 2.6 10.4 0.00 0.23 0.23 55 1014.8
20260506004550 66 209 1.7 11.3 0.00 0.23 0.23 52 1014.7
20260506003049 67 238 4.3 12.2 0.00 0.23 0.23 51 1014.6
20260506001551 68 265 4.3 10.4 0.00 0.23 0.23 50 1014.5
20260506000049 69 269 4.3 10.4 0.00 0.23 0.23 48 1014.5
20260505234551 68 178 1.7 10.4 0.00 0.23 0.23 50 1014.5
20260505233046 66 207 3.5 9.6 0.00 0.23 0.23 53 1014.6
20260505231601 66 267 2.6 9.6 0.00 0.23 0.23 51 1014.6
20260505230050 69 235 4.3 13.9 0.00 0.23 0.23 47 1014.7
20260505224544 68 266 2.6 7.0 0.00 0.23 0.23 49 1014.8
20260505223043 69 182 5.2 9.6 0.00 0.23 0.23 49 1014.8
20260505221542 69 201 3.5 10.4 0.00 0.23 0.23 47 1014.9
20260505220042 69 220 3.5 12.2 0.00 0.23 0.23 52 1015.0
20260505214602 67 236 3.5 12.2 0.00 0.23 0.23 54 1015.1
20260505213040 68 226 1.7 8.7 0.00 0.23 0.23 51 1015.1
20260505211539 69 249 3.5 9.6 0.00 0.23 0.23 53 1015.3
20260505210039 68 230 5.2 12.2 0.00 0.23 0.23 51 1015.4
20260505204536 68 180 3.5 9.6 0.00 0.23 0.23 53 1015.4
20260505203034 66 174 3.5 8.7 0.00 0.23 0.23 55 1015.6
20260505201531 66 182 3.5 10.4 0.00 0.23 0.23 58 1015.5
20260505200040 66 222 2.6 7.8 0.00 0.23 0.23 57 1015.6
20260505194527 64 256 3.5 8.7 0.00 0.23 0.23 60 1015.8
20260505193023 62 230 2.6 8.7 0.00 0.23 0.23 65 1016.0
20260505191521 62 278 2.6 7.8 0.00 0.23 0.23 70 1016.0
20260505190026 62 203 2.6 7.0 0.00 0.23 0.23 71 1016.0
20260505184520 61 259 3.5 7.8 0.00 0.23 0.23 75 1015.9
20260505183021 60 149 0.9 4.3 0.00 0.23 0.23 80 1015.9
20260505181512 59 223 0.0 1.7 0.00 0.23 0.23 86 1016.1
20260505180015 57 11 0.0 0.0 0.00 0.23 0.23 85 1016.0
20260505174511 57 292 0.9 4.3 0.00 0.23 0.23 86 1015.9
20260505173009 57 159 0.9 6.1 0.00 0.23 0.23 86 1015.6
20260505171509 57 193 1.7 6.1 0.00 0.23 0.23 86 1015.5
20260505170008 57 205 0.9 6.1 0.00 0.23 0.23 87 1015.3
20260505164504 57 139 0.0 3.5 0.00 0.23 0.23 88 1015.3
20260505163009 57 119 0.9 2.6 0.00 0.23 0.23 90 1015.3
20260505161502 55 200 0.0 3.5 0.00 0.23 0.23 92 1015.2
20260505153102 54 21 0.0 0.0 0.08 0.23 0.23 91 1015.1
20260505151604 54 322 0.0 3.5 0.08 0.23 0.23 91 1014.9
20260505140107 55 163 0.0 3.5 0.04 0.15 0.15 91 1014.3
20260505124536 55 200 0.0 1.7 0.01 0.11 0.11 91 1013.5
20260505123032 55 226 0.0 1.7 0.01 0.11 0.11 91 1013.4
20260505121537 55 199 0.0 1.7 0.00 0.10 0.10 91 1013.4
20260505120042 55 199 0.0 3.5 0.00 0.10 0.10 90 1013.4
20260505114532 56 195 0.0 1.7 0.00 0.10 0.10 90 1013.4
20260505113028 56 156 0.0 3.5 0.01 0.10 0.10 90 1013.4
20260505111527 56 177 0.0 5.2 0.02 0.10 0.10 90 1013.4
20260505101538 55 168 0.9 4.3 0.02 0.08 0.08 88 1013.5
20260505100023 55 149 1.7 6.1 0.04 0.08 0.08 88 1013.7
20260505094531 55 170 1.7 4.3 0.06 0.08 0.08 87 1013.6
20260505093018 55 107 0.0 4.3 0.08 0.08 0.08 86 1013.9
20260505091515 56 149 0.9 4.3 0.05 0.05 0.05 86 1014.1
20260505090019 56 188 0.0 1.7 0.04 0.04 0.04 85 1014.0
20260505084512 56 115 0.9 5.2 0.02 0.02 0.02 84 1014.2
20260505083017 57 122 1.7 8.7 0.00 0.00 0.00 83 1014.3
20260505081507 57 161 3.5 7.8 0.00 0.00 0.00 82 1014.5
20260505080006 58 192 0.0 7.0 0.00 0.00 0.00 81 1014.5
20260505074600 58 177 3.5 7.0 0.00 0.00 0.00 78 1014.6
20260505073129 59 197 3.5 6.1 0.00 0.00 0.00 77 1014.5
20260505071602 59 179 1.7 5.2 0.00 0.00 0.00 76 1014.6
20260505070100 59 154 0.9 6.1 0.00 0.00 0.00 75 1014.7
20260505064553 59 162 1.7 6.1 0.00 0.00 0.00 75 1014.8
20260505063052 59 168 1.7 6.1 0.00 0.00 0.00 75 1014.8
20260505061552 59 165 1.7 6.1 0.00 0.00 0.00 75 1015.0
20260505060053 60 161 2.6 6.1 0.00 0.00 0.00 74 1015.1
20260505054551 60 126 3.5 7.0 0.00 0.00 0.00 74 1015.2
20260505053051 60 149 2.6 6.1 0.00 0.00 0.00 73 1015.4
20260505051602 60 170 3.5 6.1 0.00 0.00 0.00 72 1015.6